Regional Weather Roundup
Issued by NWS

Home | Current Version | Previous Version | Text Only | Print | Product List | Glossary Off
Versions: 1 2 3 4 5 6 7 8 9 10 11 12 13 14 15 16 17 18 19 20 21 22 23 24 25 26 27 28 29 30 31 32 33 34 35 36 37 38 39 40 41 42 43 44 45 46 47 48 49 50

000
ASUS43 KFSD 290802
RWRSD

WEATHER ROUNDUP FOR SOUTH DAKOTA
NATIONAL WEATHER SERVICE SIOUX FALLS SD
300 AM CDT SUN MAY 29 2016

NOTE: "FAIR" INDICATES FEW OR NO CLOUDS BELOW 12,000 FEET WITH NO
SIGNIFICANT WEATHER AND/OR OBSTRUCTIONS TO VISIBILITY.


SDZ001>005-009-010-012>017-290900-
NORTHWEST AND NORTH CENTRAL SOUTH DAKOTA

CITY           SKY/WX    TMP DP  RH WIND       PRES   REMARKS
BUFFALO          N/A     51  42  71 W7        29.98S
FAITH            N/A     51  48  89 N7        30.02R
MOBRIDGE       CLEAR     53  50  89 CALM      29.95R
$$

SDZ012>016-024>037-041>051-057-063-072>074-290900-
SOUTHWEST AND SOUTH CENTRAL SOUTH DAKOTA

CITY           SKY/WX    TMP DP  RH WIND       PRES   REMARKS
RAPID CTY ARPT CLEAR     50  45  83 W7        30.05R
PIERRE         PTCLDY    55  52  89 W6        29.97S
CUSTER         CLEAR     40  38  93 CALM      30.13S
PHILIP         CLEAR     50  48  93 W8        30.01S
PINE RIDGE     CLEAR     41  39  93 CALM      30.07S
WINNER         FAIR      58  52  80 SW6       30.00S
$$

SDZ004>011-016>023-039-040-290900-
NORTHEAST SOUTH DAKOTA

CITY           SKY/WX    TMP DP  RH WIND       PRES   REMARKS
ABERDEEN       CLOUDY    58  55  90 W7        29.93R
WATERTOWN      PTCLDY    54  52  93 SW3       29.93R
BROOKINGS      CLOUDY    56  54  93 CALM      29.94R
SISSETON         N/A     58  56  93 N3        29.88S
$$

SDZ017-020-022-023-036>040-048>070-290900-
SOUTHEAST SOUTH DAKOTA

CITY           SKY/WX    TMP DP  RH WIND       PRES   REMARKS
SIOUX FALLS    CLEAR     56  54  93 CALM      29.95S
HURON          PTCLDY    58  55  90 W6        29.94R
MITCHELL       CLOUDY    61  59  93 W8        29.96R
YANKTON        CLOUDY    57  55  94 SW6       29.96S
$$

ABBREVIATIONS USED IN REMARKS
   TC - TEMPERATURE IN CELSIUS
  WCI - WIND CHILL INDEX
   HX - HEAT INDEX
  VSB - VISIBILITY




USA.gov is the U.S. government's official web portal to all federal, state and local government web resources and services.